Regional Weather Roundup
Issued by NWS Goodland, KS

Home | Current Version | Previous Version | Text Only | Print | Product List | Glossary Off
Versions: 1 2 3 4 5 6 7 8 9 10 11 12 13 14 15 16 17 18 19 20 21 22 23 24 25 26 27 28 29 30 31 32 33 34 35 36 37 38 39 40 41 42 43 44 45 46 47 48 49 50

000
ASUS43 KGLD 281708
RWRGLD

GOODLAND FORECAST AREA HOURLY WEATHER ROUNDUP
NATIONAL WEATHER SERVICE GOODLAND KS
1100 AM MDT FRI AUG 28 2015

...OFFICIAL OBSERVATIONS...

CITY           SKY/WX    TMP DP  RH WIND       PRES   REMARKS
GOODLAND KS    SUNNY     85  50  29 NW13G21   30.08S
HILL CITY KS   SUNNY     84  61  45 N15       29.99R
IMPERIAL NEB   SUNNY     85  52  32 NW15      30.05R
MCCOOK NEB     SUNNY     83  61  47 N17       30.01R
AKRON CO       SUNNY     79  50  36 W10G20    30.18R
BURLINGTON CO  SUNNY     83  49  30 NW16G22   30.14S
LIMON CO       SUNNY     76  49  38 NW16G22   30.25S
$$

...UNOFFICIAL OBSERVATIONS...

CITY           SKY/WX    TMP DP  RH WIND       PRES   REMARKS
COLBY KS       SUNNY     88  55  33 NW12G17   30.05R
GOVE KS          N/A     85  32  15 MISG        N/A
LENORA KS        N/A     80  32  17 MISG        N/A
NORTON KS      PTSUNNY   79  61  53 N10       29.98S
SHARON SPRINGS   N/A     84  58  40 NW13        N/A
TRIBUNE KS     SUNNY     84  55  37 W10G21    30.12R
TRENTON NEB      N/A     80  32  17 N12         N/A
YUMA CO          N/A     81  51  35 N12G18      N/A
$$


USA.gov is the U.S. government's official web portal to all federal, state and local government web resources and services.